Zurück zum Katalog

NIMBUS 2 DEB

AktivSSO
NORAD 42440·DEBRIS·🇺🇸 United States

Gestartet May 15, 1966 von Vandenberg Space Force Base

Loading…

Nächste Überflüge (nächste 24 Stunden)

TLE

AktuellSource: Space-Track

Epoche: Sep 13, 2026, 06:10 UTC

1 42440U 66040BT  26256.25711198  .00001225  00000-0  21357-2 0  9995
2 42440 100.2764  82.3377 0047483 326.6278  33.1862 13.45369322515042

Verfolge NIMBUS 2 DEB in Echtzeit mit AllMySat

Download on the App Store